QPF
0.00 0.00 0.00 0.00 0.00 0.00 0.00 0.00 0.00 0.00 0.00 0.00 0.00 0.00 0.00 0.00 0.00 0.00 0.00 0.00 0.00 0.00 0.00 0.00 0.00 0.00 0.00 0.00 0.00 0.00 0.00 0.00 0.00 0.00 0.00 0.00 0.00 0.00 0.00 0.00 0.00 0.00 0.00 0.00 0.00
0.00 0.00 0.00 0.00 0.00 0.00 0.00 0.00 0.00 0.00 0.00 0.00 0.00 0.00 0.01 0.00 0.00 0.00 0.00 0.00 0.00 0.00 0.00 0.00 0.00 0.00 0.00 0.00 0.00 0.00 0.00 0.00 0.00 0.00 0.00 0.00 0.00 0.00 0.00 0.00 0.00 0.00 0.00 0.00 0.00
0.00 0.00 0.00 0.00 0.00 0.00 0.00 0.00 0.00 0.00 0.00 0.00 0.00 0.01 0.01 0.00 0.00 0.00 0.00 0.00 0.00 0.00 0.00 0.00 0.00 0.00 0.00 0.00 0.00 0.00 0.00 0.00 0.00 0.00 0.00 0.00 0.00 0.00 0.00 0.00 0.00 0.00 0.00 0.00 0.00
0.00 0.00 0.00 0.00 0.00 0.00 0.00 0.00 0.00 0.00 0.00 0.00 0.01 0.01 0.02 0.01 0.00 0.00 0.00 0.00 0.00 0.00 0.00 0.00 0.00 0.00 0.00 0.00 0.00 0.00 0.00 0.00 0.00 0.00 0.00 0.00 0.00 0.00 0.00 0.00 0.00 0.00 0.00 0.00 0.00
0.00 0.00 0.00 0.00 0.00 0.00 0.00 0.00 0.00 0.00 0.00 0.00 0.01 0.02 0.02 0.04 0.01 0.00 0.00 0.00 0.00 0.00 0.00 0.00 0.00 0.00 0.00 0.00 0.00 0.00 0.00 0.00 0.00 0.00 0.00 0.00 0.00 0.00 0.00 0.00 0.00 0.00 0.00 0.00 0.00
0.00 0.00 0.00 0.00 0.00 0.00 0.00 0.00 0.00 0.00 0.00 0.00 0.02 0.05 0.06 0.07 0.00 0.00 0.00 0.00 0.00 0.00 0.00 0.00 0.00 0.00 0.00 0.00 0.00 0.00 0.00 0.00 0.00 0.00 0.00 0.00 0.00 0.00 0.00 0.00 0.00 0.00 0.00 0.00 0.00
0.00 0.00 0.00 0.00 0.00 0.00 0.00 0.00 0.00 0.00 0.00 0.00 0.01 0.09 0.15 0.08 0.00 0.00 0.00 0.00 0.00 0.00 0.00 0.00 0.00 0.00 0.00 0.00 0.00 0.00 0.00 0.00 0.00 0.00 0.00 0.00 0.00 0.00 0.00 0.00 0.00 0.00 0.00 0.00 0.00
0.00 0.00 0.00 0.00 0.00 0.00 0.00 0.00 0.00 0.00 0.00 0.00 0.01 0.07 0.13 0.02 0.00 0.00 0.00 0.00 0.00 0.00 0.00 0.00 0.00 0.00 0.00 0.00 0.00 0.00 0.00 0.00 0.00 0.00 0.00 0.00 0.00 0.00 0.00 0.00 0.00 0.00 0.00 0.00 0.00
0.00 0.00 0.00 0.00 0.00 0.00 0.00 0.00 0.00 0.00 0.00 0.00 0.02 0.04 0.04 0.01 0.00 0.00 0.01 0.00 0.00 0.00 0.00 0.00 0.00 0.00 0.00 0.00 0.00 0.00 0.00 0.00 0.00 0.00 0.00 0.00 0.00 0.00 0.00 0.00 0.00 0.00 0.00 0.00 0.00
0.00 0.00 0.00 0.00 0.00 0.00 0.00 0.00 0.00 0.00 0.00 0.00 0.02 0.01 0.00 0.00 0.02 0.07 0.08 0.03 0.00 0.00 0.00 0.00 0.00 0.00 0.00 0.00 0.00 0.00 0.00 0.00 0.00 0.00 0.00 0.00 0.00 0.00 0.00 0.00 0.00 0.00 0.00 0.00 0.00
0.00 0.00 0.00 0.00 0.00 0.00 0.00 0.00 0.00 0.02 0.04 0.01 0.00 0.00 0.00 0.00 0.06 0.13 0.20 0.29 0.14 0.09 0.02 0.00 0.00 0.00 0.00 0.00 0.00 0.00 0.00 0.00 0.00 0.00 0.00 0.00 0.00 0.00 0.00 0.00 0.00 0.00 0.00 0.00 0.00
0.00 0.00 0.00 0.00 0.00 0.00 0.00 0.00 0.02 0.03 0.01 0.00 0.00 0.00 0.00 0.00 0.02 0.05 0.18 0.47 0.49 0.36 0.11 0.01 0.00 0.00 0.00 0.00 0.00 0.00 0.00 0.00 0.00 0.00 0.00 0.00 0.00 0.00 0.00 0.00 0.00 0.00 0.00 0.00 0.00
0.00 0.00 0.00 0.00 0.00 0.01 0.02 0.03 0.02 0.02 0.03 0.00 0.00 0.00 0.00 0.00 0.01 0.01 0.08 0.38 0.55 0.47 0.19 0.04 0.00 0.00 0.00 0.00 0.00 0.00 0.00 0.00 0.00 0.00 0.00 0.00 0.00 0.00 0.00 0.00 0.00 0.00 0.00 0.00 0.00
0.00 0.00 0.00 0.00 0.00 0.01 0.00 0.00 0.00 0.05 0.04 0.00 0.00 0.00 0.00 0.01 0.01 0.00 0.02 0.18 0.47 0.41 0.21 0.14 0.03 0.00 0.00 0.00 0.00 0.00 0.00 0.00 0.00 0.00 0.00 0.00 0.00 0.00 0.00 0.00 0.00 0.00 0.00 0.00 0.00
0.00 0.00 0.00 0.00 0.00 0.00 0.00 0.00 0.02 0.09 0.06 0.00 0.00 0.00 0.00 0.01 0.00 0.01 0.00 0.10 0.27 0.27 0.31 0.44 0.13 0.00 0.00 0.00 0.00 0.00 0.00 0.00 0.00 0.00 0.00 0.00 0.00 0.00 0.00 0.00 0.00 0.00 0.00 0.00 0.00
0.00 0.00 0.00 0.00 0.00 0.00 0.00 0.02 0.11 0.10 0.03 0.00 0.00 0.00 0.03 0.03 0.01 0.01 0.02 0.08 0.17 0.24 0.39 0.49 0.13 0.02 0.00 0.00 0.00 0.00 0.00 0.00 0.00 0.00 0.01 0.00 0.00 0.00 0.00 0.00 0.00 0.00 0.00 0.00 0.00
0.00 0.00 0.00 0.00 0.00 0.00 0.01 0.07 0.11 0.05 0.00 0.00 0.01 0.01 0.01 0.03 0.03 0.02 0.02 0.16 0.15 0.28 0.26 0.30 0.20 0.11 0.06 0.03 0.00 0.01 0.01 0.02 0.09 0.12 0.17 0.01 0.00 0.00 0.00 0.00 0.00 0.00 0.00 0.00 0.00
0.00 0.00 0.00 0.00 0.00 0.00 0.05 0.06 0.04 0.01 0.01 0.01 0.00 0.00 0.00 0.01 0.09 0.16 0.14 0.07 0.12 0.19 0.20 0.20 0.16 0.07 0.15 0.18 0.02 0.03 0.06 0.16 0.13 0.08 0.02 0.00 0.00 0.00 0.00 0.00 0.00 0.00 0.00 0.00 0.00
0.00 0.00 0.00 0.00 0.00 0.04 0.07 0.03 0.00 0.00 0.02 0.03 0.01 0.00 0.00 0.03 0.12 0.09 0.14 0.12 0.10 0.22 0.28 0.20 0.16 0.06 0.11 0.11 0.02 0.00 0.01 0.01 0.00 0.00 0.00 0.00 0.00 0.00 0.00 0.00 0.00 0.00 0.00 0.00 0.00
0.00 0.00 0.01 0.02 0.02 0.10 0.05 0.01 0.00 0.00 0.01 0.03 0.02 0.00 0.00 0.02 0.05 0.02 0.04 0.13 0.19 0.26 0.42 0.26 0.11 0.01 0.02 0.12 0.21 0.17 0.13 0.01 0.04 0.16 0.12 0.01 0.00 0.00 0.00 0.00 0.00 0.00 0.00 0.00 0.00
0.00 0.00 0.01 0.02 0.06 0.09 0.04 0.01 0.01 0.00 0.00 0.01 0.01 0.00 0.00 0.00 0.01 0.01 0.02 0.02 0.01 0.03 0.09 0.18 0.24 0.05 0.02 0.13 0.19 0.47 0.43 0.23 0.21 0.16 0.05 0.00 0.00 0.00 0.00 0.00 0.00 0.00 0.00 0.00 0.00
0.01 0.01 0.02 0.03 0.05 0.05 0.03 0.02 0.03 0.02 0.01 0.04 0.02 0.01 0.00 0.00 0.00 0.00 0.00 0.01 0.00 0.00 0.01 0.04 0.08 0.04 0.13 0.06 0.02 0.13 0.30 0.33 0.31 0.23 0.05 0.00 0.00 0.00 0.00 0.00 0.00 0.00 0.00 0.00 0.00
0.02 0.00 0.00 0.02 0.03 0.02 0.01 0.00 0.02 0.03 0.05 0.06 0.03 0.01 0.00 0.00 0.00 0.00 0.02 0.02 0.00 0.00 0.01 0.02 0.05 0.00 0.01 0.09 0.28 0.33 0.48 0.60 0.56 0.23 0.06 0.01 0.00 0.00 0.00 0.00 0.00 0.00 0.00 0.00 0.00
0.03 0.02 0.01 0.03 0.02 0.01 0.02 0.02 0.01 0.02 0.03 0.04 0.03 0.01 0.02 0.01 0.01 0.01 0.01 0.02 0.00 0.00 0.00 0.00 0.01 0.01 0.05 0.18 0.33 0.37 0.24 0.25 0.31 0.39 0.22 0.03 0.00 0.00 0.00 0.00 0.00 0.00 0.00 0.00 0.00
0.04 0.02 0.01 0.02 0.02 0.02 0.02 0.01 0.00 0.00 0.00 0.01 0.01 0.04 0.05 0.05 0.02 0.02 0.03 0.02 0.01 0.01 0.00 0.01 0.00 0.00 0.02 0.02 0.02 0.06 0.10 0.07 0.09 0.10 0.09 0.02 0.00 0.00 0.01 0.00 0.00 0.00 0.00 0.00 0.00
0.04 0.02 0.02 0.01 0.01 0.01 0.02 0.01 0.01 0.00 0.01 0.01 0.02 0.02 0.05 0.12 0.11 0.10 0.06 0.05 0.03 0.01 0.03 0.03 0.01 0.01 0.00 0.00 0.00 0.01 0.02 0.01 0.01 0.01 0.01 0.00 0.00 0.00 0.03 0.02 0.00 0.00 0.00 0.00 0.00
0.02 0.03 0.07 0.05 0.02 0.02 0.02 0.01 0.01 0.01 0.01 0.01 0.01 0.01 0.02 0.03 0.04 0.03 0.01 0.01 0.01 0.01 0.01 0.05 0.05 0.01 0.00 0.00 0.01 0.01 0.00 0.00 0.00 0.00 0.00 0.00 0.00 0.00 0.00 0.05 0.02 0.00 0.00 0.00 0.00
MSLP
1018.26 1018.08 1018.06 1017.76 1017.69 1017.33 1017.12 1016.84 1016.79 1016.58 1016.28 1016.05 1015.84 1015.42 1015.11 1014.46 1013.66 1012.60 1010.90 1009.83 1008.95 1008.96 1009.11 1008.40 1007.29 1006.50 1006.25 1005.29 1004.94 1004.55 1003.76 1002.02 1000.71 999.27 997.62 996.75 997.04 997.59 998.01 997.97 997.85 998.41 999.14 1000.34 1001.81
1018.23 1018.20 1018.08 1017.92 1017.70 1017.27 1017.06 1016.81 1016.76 1016.54 1016.38 1016.10 1015.86 1015.45 1015.02 1014.51 1013.29 1010.63 1009.53 1009.12 1008.76 1008.88 1008.90 1007.95 1006.88 1005.95 1005.37 1004.75 1004.24 1003.61 1002.46 1001.38 1000.37 998.58 997.78 996.99 997.36 997.77 998.12 998.37 998.30 998.71 999.56 1000.38 1001.85
1018.51 1018.36 1018.22 1017.85 1017.53 1017.29 1017.03 1016.83 1016.66 1016.54 1016.36 1016.14 1015.94 1015.51 1015.09 1014.55 1012.30 1007.50 1007.70 1007.38 1007.68 1008.14 1008.40 1007.90 1006.70 1005.36 1004.68 1003.99 1003.32 1002.64 1001.34 1001.14 999.93 999.22 998.49 997.47 997.48 997.91 997.69 998.03 998.21 998.44 999.47 1000.34 1001.53
1018.70 1018.36 1017.97 1017.73 1017.46 1017.18 1017.06 1016.85 1016.59 1016.33 1016.17 1016.06 1015.91 1015.60 1015.15 1014.74 1011.28 1006.79 1006.78 1006.79 1006.65 1007.19 1007.76 1007.26 1006.65 1005.22 1003.96 1003.08 1002.75 1001.98 1001.15 1001.11 1000.15 999.28 998.65 998.42 998.11 997.91 997.80 998.07 997.72 997.67 998.41 999.72 1000.92
1018.79 1018.44 1018.05 1017.71 1017.35 1017.07 1016.89 1016.71 1016.39 1016.10 1015.89 1015.81 1015.82 1015.80 1015.06 1013.91 1010.98 1007.35 1007.38 1007.45 1006.41 1006.61 1006.37 1006.14 1005.84 1004.96 1003.30 1002.82 1002.40 1001.12 1000.68 1000.50 999.86 999.10 998.69 998.84 998.38 998.10 997.94 998.09 998.01 998.30 998.80 999.49 1000.58
1018.78 1018.42 1018.08 1017.77 1017.43 1017.04 1016.70 1016.45 1016.17 1015.91 1015.71 1015.56 1015.57 1015.77 1015.46 1013.67 1010.74 1009.11 1008.70 1008.53 1007.21 1006.00 1005.93 1005.41 1004.44 1004.12 1003.35 1002.61 1001.65 1001.00 1000.51 999.68 999.36 998.83 998.56 998.74 998.78 998.54 998.17 998.13 998.14 998.22 998.60 999.31 999.73
1018.82 1018.44 1018.10 1017.75 1017.39 1016.95 1016.55 1016.17 1015.80 1015.54 1015.34 1015.21 1015.22 1015.38 1014.42 1010.77 1010.37 1009.46 1009.80 1008.63 1007.90 1006.86 1004.97 1004.74 1004.38 1003.57 1003.22 1001.89 1001.42 1001.00 1000.24 999.34 998.48 998.34 998.24 998.62 998.42 998.11 998.21 998.28 998.02 998.05 998.10 998.54 999.18
1018.86 1018.44 1018.04 1017.64 1017.26 1016.80 1016.33 1015.85 1015.32 1014.91 1014.76 1014.80 1014.85 1014.83 1012.61 1010.55 1010.52 1009.50 1009.18 1008.30 1007.38 1006.43 1004.61 1003.20 1003.49 1003.08 1002.52 1001.90 1001.49 1000.61 1000.16 998.43 997.40 997.74 997.82 998.09 997.05 997.68 997.92 997.82 997.59 997.41 997.62 997.83 998.27
1018.82 1018.43 1018.01 1017.54 1017.15 1016.63 1016.10 1015.42 1014.58 1013.86 1014.08 1014.29 1014.46 1014.11 1011.17 1010.00 1009.67 1009.06 1009.00 1008.42 1007.48 1006.26 1004.65 1002.90 1002.33 1001.43 1002.06 1001.52 1000.71 999.96 998.26 997.38 997.57 997.37 997.29 996.94 996.60 997.09 996.78 996.83 997.02 996.90 996.98 997.22 997.52
1018.81 1018.39 1017.98 1017.52 1017.04 1016.52 1015.80 1014.71 1012.98 1012.59 1012.97 1013.21 1013.22 1013.53 1010.51 1008.81 1008.46 1008.86 1008.77 1008.95 1008.27 1006.76 1004.99 1002.98 1002.10 1001.03 1000.45 1000.10 998.03 996.96 997.19 997.20 996.42 996.72 996.51 996.04 995.66 996.46 996.35 995.91 995.69 995.93 996.20 996.40 996.64
1018.82 1018.41 1017.95 1017.44 1016.90 1016.33 1015.62 1013.97 1011.18 1011.16 1012.07 1011.42 1010.56 1009.90 1008.17 1007.73 1008.16 1008.44 1008.92 1008.96 1008.37 1007.29 1004.99 1002.36 1001.40 999.38 998.35 997.69 997.30 997.86 996.80 996.44 996.05 995.89 996.00 995.03 994.60 994.83 995.10 995.12 994.48 994.62 995.07 995.46 995.83
1018.83 1018.42 1017.86 1017.39 1016.73 1015.98 1015.49 1014.01 1013.07 1013.28 1011.60 1010.53 1009.21 1007.80 1006.86 1007.18 1006.50 1007.38 1009.20 1009.04 1007.44 1006.30 1005.07 1003.27 1000.55 999.18 998.30 997.87 997.69 997.13 996.33 995.29 995.05 995.46 995.36 994.56 993.77 993.95 993.76 993.62 993.94 993.87 993.81 994.18 994.81
1018.65 1018.39 1017.85 1017.31 1016.27 1015.35 1014.17 1013.20 1012.78 1013.01 1011.46 1008.93 1006.47 1005.52 1004.74 1005.06 1004.85 1005.99 1008.30 1008.28 1007.32 1006.40 1004.49 1002.28 999.92 999.02 998.33 997.46 997.01 995.92 995.25 994.65 994.39 994.77 994.72 994.47 993.50 993.11 992.77 993.15 993.13 993.15 992.97 993.24 993.90
1018.60 1018.23 1017.86 1017.20 1015.81 1015.01 1013.65 1013.14 1012.85 1012.75 1011.16 1006.70 1003.70 1002.22 1002.97 1003.47 1004.42 1005.23 1006.06 1008.03 1007.10 1006.18 1005.33 1003.49 1001.91 999.99 998.79 996.88 996.14 994.95 995.07 994.92 995.22 995.06 993.89 993.54 992.64 992.83 992.35 992.34 992.66 992.21 992.08 992.47 993.21
1018.46 1018.09 1017.80 1017.54 1016.62 1015.31 1013.82 1013.33 1013.19 1013.20 1010.01 1004.42 1001.80 1001.45 1002.25 1003.64 1003.52 1004.93 1005.46 1006.87 1006.94 1006.00 1005.25 1003.97 1002.81 1001.22 998.78 996.85 996.48 994.35 994.95 995.30 995.31 995.02 994.74 993.71 993.19 991.70 991.85 991.32 991.27 991.58 991.61 991.57 992.06
1018.33 1017.97 1017.63 1016.54 1015.65 1014.57 1014.03 1013.75 1013.83 1012.91 1008.34 1004.51 1002.21 1002.49 1003.41 1004.62 1004.77 1004.68 1005.47 1006.81 1006.85 1006.57 1005.62 1005.28 1004.56 1003.20 1000.29 998.54 997.90 997.04 996.77 996.18 995.79 995.67 994.85 994.43 993.76 990.57 990.90 990.25 990.55 990.59 990.69 990.69 991.13
1018.07 1017.71 1017.41 1016.55 1015.31 1014.65 1014.11 1014.15 1013.47 1010.94 1007.14 1004.71 1004.00 1003.75 1003.81 1002.90 1003.32 1004.67 1005.30 1006.62 1006.79 1006.69 1005.19 1004.73 1004.12 1003.41 1002.63 1001.31 999.41 999.10 998.13 997.72 997.13 996.05 995.98 994.91 993.57 990.38 989.49 989.82 989.52 989.25 989.10 989.37 990.11
1017.68 1017.13 1016.08 1015.31 1014.47 1014.03 1014.38 1014.36 1012.63 1009.44 1007.63 1006.07 1005.68 1004.08 1002.77 1004.52 1004.99 1005.82 1005.17 1005.51 1006.37 1006.33 1005.35 1004.15 1003.26 1002.28 1002.12 1001.61 1000.42 999.57 998.49 998.00 996.99 996.08 995.27 995.24 994.29 989.82 987.30 989.94 988.76 987.48 987.52 988.54 988.92
1017.31 1015.79 1014.57 1013.66 1013.38 1013.94 1014.67 1013.81 1011.34 1009.52 1007.81 1007.38 1006.90 1004.72 1003.29 1003.99 1006.16 1006.04 1005.96 1006.05 1006.65 1006.86 1006.16 1003.84 1002.32 1001.30 1000.98 1000.67 1001.48 999.94 998.68 997.85 998.58 997.02 995.89 994.08 993.50 990.74 990.34 989.22 988.66 988.28 987.61 987.98 988.39
1016.93 1015.45 1013.52 1013.24 1013.14 1013.93 1014.36 1012.68 1010.98 1009.66 1008.56 1008.05 1007.37 1006.57 1004.58 1003.92 1004.97 1005.11 1005.44 1006.50 1006.87 1007.02 1006.95 1005.20 1002.57 1000.27 1000.13 1000.68 1000.65 1000.45 1000.33 999.64 999.33 997.70 995.76 993.53 991.80 988.60 988.05 987.46 987.71 987.78 987.85 987.93 988.15
1016.87 1014.81 1012.90 1013.15 1013.61 1013.89 1013.16 1011.80 1010.55 1009.49 1008.63 1008.79 1007.72 1006.07 1005.07 1004.59 1004.59 1004.33 1004.32 1004.50 1006.04 1006.57 1006.61 1005.98 1003.63 1000.53 999.39 999.61 999.92 1000.97 1000.40 999.82 999.41 998.55 995.92 992.85 990.07 985.90 987.92 987.00 987.30 987.03 986.88 986.74 987.48
1016.17 1014.74 1012.97 1013.32 1013.81 1013.67 1012.75 1011.57 1010.54 1009.48 1009.12 1008.47 1008.19 1007.13 1005.68 1004.57 1004.24 1003.99 1004.89 1004.53 1005.29 1005.37 1005.73 1006.06 1004.62 1001.69 1000.15 999.56 999.42 1000.15 1000.65 1000.19 999.37 998.03 996.46 992.60 989.15 987.46 986.47 986.33 985.85 985.77 986.04 986.27 987.01
1015.84 1014.32 1013.24 1013.01 1013.05 1012.58 1011.89 1010.81 1009.90 1009.38 1008.79 1008.65 1007.94 1006.84 1005.88 1005.10 1004.81 1004.13 1004.42 1005.68 1005.03 1005.02 1005.55 1005.81 1005.07 1002.91 1000.25 1000.55 1001.66 1002.01 1002.53 1001.95 1000.08 999.05 996.14 993.18 989.66 987.69 987.35 986.65 986.09 985.94 986.64 987.54 987.76
1016.49 1014.87 1013.70 1012.99 1013.07 1012.66 1011.88 1010.94 1009.89 1009.36 1008.76 1008.56 1007.90 1006.86 1006.18 1005.42 1005.22 1004.71 1004.36 1004.79 1004.61 1004.66 1005.38 1005.74 1004.91 1004.56 1003.50 1003.71 1004.06 1003.58 1003.38 1002.81 1001.36 999.54 996.59 993.65 990.34 989.01 989.28 989.44 989.75 988.47 988.62 989.14 989.08
1016.43 1015.02 1014.03 1013.51 1013.15 1012.66 1011.90 1011.08 1010.04 1009.20 1008.62 1007.96 1007.43 1007.07 1006.89 1006.44 1005.43 1004.89 1004.60 1004.24 1004.42 1004.65 1005.02 1005.69 1005.30 1004.78 1004.06 1003.98 1004.08 1003.81 1003.26 1002.72 1001.86 1000.66 998.40 994.92 992.67 990.94 992.20 992.57 992.12 991.67 990.52 990.20 990.08
1016.38 1015.32 1014.25 1013.67 1013.07 1012.46 1011.78 1011.11 1010.17 1009.43 1008.80 1008.00 1007.74 1007.27 1006.82 1006.76 1007.09 1006.24 1005.60 1004.68 1004.34 1003.95 1004.22 1005.10 1004.69 1004.11 1003.64 1003.24 1003.06 1002.80 1002.28 1001.45 1001.12 999.95 998.26 996.33 994.63 993.94 993.49 993.31 993.67 993.30 992.34 991.76 991.48
1015.46 1014.82 1014.66 1013.38 1012.88 1012.43 1011.62 1010.69 1009.91 1009.45 1008.96 1008.25 1007.95 1007.26 1006.57 1005.87 1005.80 1005.62 1005.34 1004.93 1004.37 1003.99 1003.88 1004.30 1004.62 1004.18 1003.56 1003.16 1002.88 1002.20 999.97 999.23 999.26 998.44 997.43 995.95 994.98 994.29 994.15 994.99 995.13 994.49 993.37 992.91 992.47
Thickness
5566 5567 5566 5568 5568 5570 5572 5575 5577 5581 5587 5593 5599 5608 5615 5625 5638 5653 5675 5691 5699 5704 5708 5715 5726 5733 5736 5739 5746 5750 5722 5728 5746 5761 5784 5814 5799 5811 5817 5807 5815 5818 5807 5805 5808
5558 5555 5553 5553 5552 5556 5558 5560 5561 5564 5568 5575 5581 5589 5600 5609 5627 5656 5681 5685 5692 5695 5696 5701 5709 5724 5723 5729 5736 5732 5727 5738 5766 5784 5785 5803 5797 5797 5794 5792 5797 5802 5807 5807 5802
5547 5545 5542 5542 5542 5542 5542 5543 5545 5547 5549 5555 5562 5572 5581 5592 5621 5677 5672 5685 5688 5688 5690 5695 5707 5716 5713 5727 5731 5735 5732 5752 5765 5773 5782 5787 5790 5798 5792 5781 5794 5793 5795 5798 5795
5536 5536 5535 5534 5531 5529 5527 5526 5527 5529 5531 5534 5541 5551 5563 5571 5607 5659 5664 5671 5679 5677 5677 5684 5689 5696 5706 5712 5731 5720 5746 5748 5759 5769 5772 5769 5787 5783 5790 5790 5808 5814 5808 5801 5790
5524 5523 5522 5521 5519 5516 5513 5509 5510 5511 5513 5515 5519 5526 5542 5551 5595 5636 5642 5652 5666 5668 5674 5679 5678 5689 5698 5714 5720 5726 5740 5748 5761 5766 5769 5771 5768 5776 5782 5797 5805 5804 5800 5795 5788
5512 5510 5508 5505 5503 5501 5498 5496 5494 5492 5493 5496 5499 5503 5511 5526 5593 5602 5621 5632 5648 5660 5662 5672 5682 5694 5694 5702 5711 5733 5736 5747 5755 5758 5761 5755 5757 5769 5779 5793 5792 5796 5794 5790 5791
5498 5496 5494 5491 5489 5487 5484 5482 5480 5478 5478 5479 5481 5484 5499 5560 5568 5586 5594 5612 5626 5642 5658 5668 5676 5675 5690 5695 5719 5719 5713 5734 5746 5753 5750 5757 5741 5748 5778 5782 5782 5787 5794 5793 5791
5485 5483 5481 5477 5475 5473 5471 5469 5469 5468 5467 5466 5466 5469 5495 5542 5545 5569 5581 5596 5612 5628 5651 5671 5671 5671 5675 5697 5694 5696 5705 5702 5745 5749 5751 5745 5726 5756 5774 5774 5774 5784 5788 5792 5793
5473 5470 5467 5464 5461 5459 5458 5459 5461 5462 5458 5455 5457 5458 5497 5527 5538 5550 5556 5575 5592 5612 5635 5655 5658 5667 5669 5661 5667 5684 5683 5700 5721 5745 5743 5741 5730 5755 5773 5775 5769 5778 5784 5787 5790
5460 5457 5453 5450 5447 5445 5446 5451 5461 5458 5453 5450 5452 5447 5489 5509 5525 5526 5542 5552 5565 5586 5602 5628 5638 5644 5654 5656 5650 5685 5686 5698 5708 5728 5738 5736 5735 5748 5765 5773 5773 5776 5780 5783 5786
5447 5444 5441 5437 5435 5433 5436 5444 5466 5462 5446 5453 5465 5466 5489 5495 5503 5512 5524 5527 5547 5558 5576 5625 5616 5621 5654 5677 5693 5694 5698 5697 5715 5735 5727 5734 5741 5750 5762 5767 5776 5777 5773 5778 5783
5435 5432 5429 5425 5425 5425 5424 5432 5435 5425 5434 5449 5461 5471 5480 5478 5500 5513 5499 5508 5532 5553 5573 5584 5585 5642 5672 5678 5675 5684 5687 5700 5720 5726 5723 5730 5736 5751 5762 5768 5773 5776 5781 5777 5780
5425 5420 5419 5416 5419 5421 5426 5428 5426 5419 5420 5453 5475 5478 5487 5483 5498 5504 5483 5497 5509 5515 5558 5575 5610 5654 5656 5661 5661 5674 5682 5694 5703 5719 5725 5721 5719 5738 5758 5763 5773 5778 5785 5784 5781
5415 5412 5408 5408 5415 5415 5421 5420 5417 5412 5407 5460 5485 5501 5493 5489 5486 5488 5492 5481 5494 5513 5539 5553 5589 5618 5630 5648 5667 5663 5693 5695 5694 5691 5682 5726 5688 5721 5743 5744 5756 5771 5777 5777 5779
5406 5403 5399 5394 5399 5401 5411 5409 5406 5399 5406 5482 5499 5502 5496 5480 5485 5474 5480 5475 5480 5514 5531 5537 5561 5585 5616 5639 5663 5672 5699 5685 5687 5682 5686 5698 5690 5715 5740 5732 5750 5759 5770 5777 5782
5398 5395 5392 5394 5396 5401 5400 5398 5393 5392 5415 5472 5498 5483 5471 5460 5469 5474 5468 5462 5472 5486 5505 5504 5526 5538 5587 5621 5638 5659 5657 5664 5673 5670 5645 5676 5684 5708 5715 5735 5747 5760 5769 5777 5782
5392 5389 5385 5386 5391 5391 5392 5387 5386 5396 5457 5472 5470 5473 5474 5491 5487 5468 5471 5453 5463 5478 5505 5529 5522 5537 5552 5564 5598 5602 5623 5605 5608 5620 5609 5670 5674 5707 5741 5747 5753 5761 5770 5777 5781
5387 5386 5387 5388 5390 5390 5383 5376 5377 5428 5442 5458 5455 5472 5489 5450 5456 5444 5455 5468 5459 5470 5498 5523 5533 5541 5547 5549 5578 5592 5605 5590 5583 5595 5624 5648 5622 5697 5761 5744 5759 5778 5781 5779 5779
5384 5390 5392 5394 5392 5383 5371 5370 5394 5418 5438 5431 5431 5462 5479 5476 5434 5439 5438 5446 5450 5438 5469 5514 5527 5548 5552 5561 5558 5585 5585 5623 5599 5626 5628 5652 5659 5704 5721 5733 5743 5749 5766 5765 5770
5382 5386 5395 5391 5388 5377 5365 5378 5396 5414 5422 5422 5415 5435 5455 5467 5451 5456 5442 5427 5428 5425 5425 5465 5520 5556 5558 5553 5558 5565 5584 5574 5576 5580 5590 5640 5657 5692 5716 5729 5741 5743 5747 5757 5763
5374 5383 5394 5386 5379 5370 5373 5386 5399 5414 5420 5405 5414 5439 5451 5453 5457 5465 5471 5463 5434 5430 5435 5440 5475 5542 5558 5548 5560 5552 5560 5573 5576 5576 5594 5628 5657 5736 5719 5731 5727 5739 5748 5756 5756
5374 5369 5387 5379 5366 5360 5370 5387 5398 5405 5408 5410 5407 5419 5440 5455 5457 5466 5442 5457 5445 5447 5438 5435 5452 5510 5535 5558 5569 5558 5555 5571 5564 5573 5585 5638 5668 5723 5731 5729 5741 5743 5749 5754 5751
5368 5377 5379 5377 5363 5374 5384 5392 5399 5399 5404 5398 5402 5425 5439 5445 5441 5457 5452 5428 5443 5442 5438 5439 5451 5497 5549 5545 5506 5513 5495 5506 5526 5556 5592 5615 5660 5715 5718 5723 5732 5725 5724 5723 5728
5355 5359 5365 5371 5369 5368 5373 5377 5384 5396 5399 5399 5403 5420 5426 5432 5442 5441 5449 5436 5443 5444 5435 5436 5445 5451 5473 5469 5469 5482 5488 5492 5511 5553 5575 5612 5668 5695 5671 5674 5673 5692 5702 5703 5712
5350 5355 5360 5359 5359 5363 5369 5371 5375 5381 5394 5403 5404 5409 5407 5402 5425 5437 5445 5448 5442 5439 5433 5429 5434 5446 5457 5469 5473 5474 5480 5492 5500 5513 5545 5610 5633 5669 5630 5631 5650 5667 5681 5686 5692
5340 5342 5353 5356 5360 5360 5361 5359 5365 5373 5378 5384 5385 5398 5402 5388 5381 5394 5411 5430 5432 5447 5446 5430 5437 5448 5455 5472 5479 5476 5492 5509 5512 5527 5543 5567 5587 5613 5619 5625 5627 5630 5643 5652 5663
5345 5345 5337 5351 5352 5347 5350 5357 5362 5364 5368 5377 5377 5383 5390 5403 5405 5408 5408 5417 5429 5435 5440 5433 5424 5438 5447 5460 5453 5451 5502 5521 5525 5538 5554 5568 5588 5601 5599 5594 5595 5603 5619 5629 5641